sat.trackr.live / text

‹ back to catalog

STARLINK-30775

NORAD 58139 · 2023-162X

PAYLOAD ACTIVE UNKNOWN

§ Identity

Operator
Country
US
Launch date
2023-10-22
Launch site
AFETR
Launch vehicle
Mass (kg)
RCS (m²)

Purposes: comms

External: N2YO · Heavens-Above · Gunter

§ Orbital elements

Epoch: 2026-09-20T07:06:03.836736Z

Period
94.27 min
Inclination
43.0022°
Eccentricity
0.0001078
Mean motion
15.27576058 rev/d
Perigee alt
482.3 km
Apogee alt
483.8 km
Semi-major
6,861.2 km
B*
2.0588e-5
RAAN
113.1056°
Arg perigee
270.3556°
Mean anomaly
89.7172°
Rev number
16,207

§ Raw data

STARLINK-307751 58139U 23162X   26263.29587774  .00000304  00000+0  20588-4 0  99912 58139  43.0022 113.1056 0001078 270.3556  89.7172 15.27576058162076

JSON: /api/v1/satellites/58139 · /tle

For live sub-satellite position, see the globe view (requires WebGL).

§ Visibility from observer

Set your observer location to see the next 7 days of passes ≥ 10°. The values pass through the URL so the page stays shareable.

No JS? Fill the form by hand. The geolocation button needs JavaScript.